2020-085E

Last updated on Fri Dec 04 2020 00:02:04 GMT+0000 (Coordinated Universal Time)

1 46933U 20085E 20337.95408773 .00011759 00000-0 52899-3 0 9997 2 46933 97.3701 112.3259 0015315 253.5977 106.3534 15.21153500 1950
UTC large
Height (km)
Speed (km/s)
/
Latitude / Longitude
Inclination (degrees)
Orbital Period (minutes)
Azimuth
Elevation
Range (km)
Doppler Factor

Next 0 passes for location: London (51.5072 / 0.1276)

Sorry there are no passes over London.